When you browse on this site, cookies collect data to enhance your experience and personalize the content and advertising you see.
Visit our Privacy Policy to learn more. By continuing to use the site, you agree to this use of cookies and data.

Hourly Weather Las Vegas

Today, 8 July, Wednesday

Time Temperature Precipitation Wind Pressure Humidity
00:00 +28°C° 0 mm 3 mps 705 mmHg 14%
01:00 +26°C° 0 mm 2 mps 705 mmHg 16%
02:00 +26°C° 0 mm 2 mps 705 mmHg 18%
03:00 +25°C° 0 mm 2 mps 705 mmHg 20%
04:00 +24°C° 0 mm 2 mps 705 mmHg 21%
05:00 +26°C° 0 mm 2 mps 705 mmHg 18%
06:00 +29°C° 0 mm 2 mps 706 mmHg 14%
07:00 +32°C° 0 mm 2 mps 707 mmHg 11%
08:00 +35°C° 0 mm 3 mps 707 mmHg 9%
09:00 +37°C° 0 mm 4 mps 707 mmHg 7%
10:00 +40°C° 0 mm 5 mps 708 mmHg 5%
11:00 +41°C° 0 mm 6 mps 707 mmHg 4%
12:00 +43°C° 0 mm 7 mps 707 mmHg 4%
13:00 +45°C° 0 mm 8 mps 706 mmHg 3%
14:00 +45°C° 0 mm 8 mps 706 mmHg 3%
15:00 +45°C° 0 mm 8 mps 706 mmHg 3%
16:00 +45°C° 0 mm 8 mps 705 mmHg 3%
17:00 +43°C° 0 mm 7 mps 705 mmHg 4%
18:00 +39°C° 0 mm 6 mps 705 mmHg 4%
19:00 +36°C° 0 mm 6 mps 704 mmHg 5%
20:00 +35°C° 0 mm 5 mps 705 mmHg 6%
21:00 +33°C° 0 mm 4 mps 705 mmHg 7%
22:00 +30°C° 0 mm 3 mps 705 mmHg 8%
23:00 +29°C° 0 mm 3 mps 705 mmHg 10%

Tomorrow, 9 July, Thursday

Time Temperature Precipitation Wind Pressure Humidity
00:00 +28°C° 0 mm 3 mps 705 mmHg 12%
01:00 +27°C° 0 mm 2 mps 705 mmHg 14%
02:00 +26°C° 0 mm 2 mps 705 mmHg 15%
03:00 +25°C° 0 mm 2 mps 705 mmHg 17%
04:00 +24°C° 0 mm 2 mps 705 mmHg 19%
05:00 +27°C° 0 mm 2 mps 706 mmHg 16%
06:00 +30°C° 0 mm 1 mps 707 mmHg 13%
07:00 +32°C° 0 mm 1 mps 707 mmHg 10%
08:00 +35°C° 0 mm 2 mps 707 mmHg 9%
09:00 +37°C° 0 mm 2 mps 708 mmHg 8%
10:00 +39°C° 0 mm 2 mps 708 mmHg 6%
11:00 +40°C° 0 mm 3 mps 708 mmHg 5%
12:00 +43°C° 0 mm 4 mps 708 mmHg 4%
13:00 +46°C° 0 mm 5 mps 707 mmHg 3%
14:00 +46°C° 0 mm 6 mps 707 mmHg 3%
15:00 +46°C° 0 mm 7 mps 707 mmHg 3%
16:00 +46°C° 0 mm 8 mps 706 mmHg 2%
17:00 +44°C° 0 mm 7 mps 706 mmHg 3%
18:00 +40°C° 0 mm 6 mps 706 mmHg 4%
19:00 +37°C° 0 mm 5 mps 706 mmHg 5%
20:00 +35°C° 0 mm 4 mps 706 mmHg 6%
21:00 +33°C° 0 mm 4 mps 707 mmHg 7%
22:00 +31°C° 0 mm 3 mps 707 mmHg 8%
23:00 +30°C° 0 mm 2 mps 707 mmHg 8%

Day after tomorrow, 10 July, Friday

Time Temperature Precipitation Wind Pressure Humidity
00:00 +29°C° 0 mm 2 mps 707 mmHg 9%
01:00 +29°C° 0 mm 2 mps 707 mmHg 10%
02:00 +28°C° 0 mm 2 mps 707 mmHg 12%
03:00 +27°C° 0 mm 1 mps 707 mmHg 13%
04:00 +26°C° 0 mm 1 mps 707 mmHg 15%
05:00 +29°C° 0 mm 1 mps 708 mmHg 14%
06:00 +32°C° 0 mm 1 mps 709 mmHg 12%
07:00 +34°C° 0 mm 1 mps 710 mmHg 11%
08:00 +36°C° 0 mm 1 mps 710 mmHg 10%
09:00 +39°C° 0 mm 2 mps 710 mmHg 10%
10:00 +41°C° 0 mm 2 mps 711 mmHg 9%
11:00 +43°C° 0 mm 3 mps 711 mmHg 9%
12:00 +45°C° 0 mm 4 mps 710 mmHg 10%
13:00 +48°C° 0 mm 4 mps 710 mmHg 10%
14:00 +48°C° 0 mm 6 mps 710 mmHg 11%
15:00 +49°C° 0 mm 7 mps 710 mmHg 11%
16:00 +49°C° 0 mm 8 mps 709 mmHg 11%
17:00 +46°C° 0 mm 7 mps 709 mmHg 13%
18:00 +44°C° 0 mm 6 mps 709 mmHg 14%
19:00 +41°C° 0 mm 5 mps 709 mmHg 16%
20:00 +40°C° 0 mm 4 mps 709 mmHg 17%
21:00 +37°C° 0 mm 4 mps 710 mmHg 19%
22:00 +36°C° 0 mm 3 mps 710 mmHg 20%
23:00 +35°C° 0 mm 3 mps 710 mmHg 20%

11 July, Saturday

Time Temperature Precipitation Wind Pressure Humidity
00:00 +34°C° 0 mm 2 mps 710 mmHg 19%
01:00 +32°C° 0 mm 2 mps 710 mmHg 19%
02:00 +31°C° 0 mm 2 mps 710 mmHg 20%
03:00 +31°C° 0 mm 1 mps 709 mmHg 20%
04:00 +30°C° 0 mm 1 mps 709 mmHg 21%
05:00 +33°C° 0 mm 1 mps 710 mmHg 18%
06:00 +35°C° 0 mm 1 mps 711 mmHg 16%
07:00 +39°C° 0 mm 1 mps 711 mmHg 14%
08:00 +40°C° 0 mm 1 mps 711 mmHg 13%
09:00 +42°C° 0 mm 1 mps 711 mmHg 12%
10:00 +45°C° 0 mm 2 mps 712 mmHg 11%
11:00 +46°C° 0 mm 3 mps 711 mmHg 10%
12:00 +48°C° 0 mm 4 mps 711 mmHg 10%
13:00 +49°C° 0 mm 4 mps 710 mmHg 9%
14:00 +49°C° 0 mm 5 mps 710 mmHg 9%
15:00 +49°C° 0 mm 6 mps 709 mmHg 10%
16:00 +49°C° 0 mm 6 mps 709 mmHg 10%
17:00 +48°C° 0 mm 6 mps 709 mmHg 11%
18:00 +46°C° 0 mm 6 mps 709 mmHg 12%
19:00 +43°C° 0 mm 5 mps 709 mmHg 13%
20:00 +41°C° 0 mm 4 mps 709 mmHg 15%
21:00 +39°C° 0 mm 3 mps 709 mmHg 16%
22:00 +37°C° 0 mm 2 mps 709 mmHg 18%
23:00 +36°C° 0 mm 2 mps 709 mmHg 19%

12 July, Sunday

Time Temperature Precipitation Wind Pressure Humidity
00:00 +35°C° 0 mm 2 mps 708 mmHg 21%
01:00 +33°C° 0 mm 1 mps 708 mmHg 22%
02:00 +32°C° 0 mm 1 mps 708 mmHg 23%
03:00 +32°C° 0 mm 1 mps 708 mmHg 24%
04:00 +31°C° 0 mm 1 mps 708 mmHg 26%
05:00 +33°C° 0 mm 1 mps 708 mmHg 22%
06:00 +36°C° 0 mm 1 mps 709 mmHg 19%
07:00 +40°C° 0 mm 1 mps 710 mmHg 16%
08:00 +41°C° 0 mm 1 mps 709 mmHg 15%
09:00 +43°C° 0 mm 2 mps 709 mmHg 13%
10:00 +46°C° 0 mm 3 mps 709 mmHg 12%
11:00 +48°C° 0 mm 4 mps 709 mmHg 11%
12:00 +49°C° 0 mm 5 mps 708 mmHg 10%
13:00 +51°C° 0 mm 6 mps 708 mmHg 9%
14:00 +51°C° 0 mm 7 mps 707 mmHg 9%
15:00 +50°C° 0 mm 7 mps 707 mmHg 9%
16:00 +50°C° 0 mm 7 mps 706 mmHg 9%
17:00 +49°C° 0 mm 7 mps 706 mmHg 10%
18:00 +46°C° 0 mm 6 mps 706 mmHg 12%
19:00 +44°C° 0 mm 6 mps 706 mmHg 13%
20:00 +42°C° 0 mm 6 mps 706 mmHg 14%
21:00 +41°C° 0 mm 6 mps 706 mmHg 14%
22:00 +39°C° 0 mm 6 mps 707 mmHg 15%
23:00 +37°C° 0 mm 5 mps 706 mmHg 15%

13 July, Monday

Time Temperature Precipitation Wind Pressure Humidity
00:00 +36°C° 0 mm 4 mps 706 mmHg 16%
01:00 +35°C° 0 mm 3 mps 706 mmHg 17%
02:00 +34°C° 0 mm 3 mps 706 mmHg 18%
03:00 +34°C° 0 mm 3 mps 706 mmHg 19%
04:00 +32°C° 0 mm 2 mps 706 mmHg 20%
05:00 +35°C° 0 mm 3 mps 706 mmHg 18%
06:00 +37°C° 0 mm 3 mps 707 mmHg 16%
07:00 +39°C° 0 mm 3 mps 708 mmHg 14%
08:00 +42°C° 0 mm 4 mps 708 mmHg 12%
09:00 +45°C° 0 mm 6 mps 708 mmHg 10%
10:00 +47°C° 0 mm 7 mps 708 mmHg 8%
11:00 +49°C° 0 mm 8 mps 707 mmHg 8%
12:00 +49°C° 0 mm 9 mps 707 mmHg 8%
13:00 +50°C° 0 mm 10 mps 707 mmHg 8%
14:00 +50°C° 0 mm 10 mps 706 mmHg 8%
15:00 +49°C° 0 mm 10 mps 706 mmHg 8%
16:00 +49°C° 0 mm 10 mps 705 mmHg 8%
17:00 +48°C° 0 mm 9 mps 705 mmHg 9%
18:00 +45°C° 0 mm 8 mps 705 mmHg 10%
19:00 +43°C° 0 mm 7 mps 705 mmHg 11%
20:00 +40°C° 0 mm 7 mps 705 mmHg 11%
21:00 +39°C° 0 mm 6 mps 705 mmHg 11%
22:00 +36°C° 0 mm 5 mps 706 mmHg 11%
23:00 +36°C° 0 mm 5 mps 706 mmHg 11%
Show more